Location: Newark
(23.3970°S, 47.6010°W)
Time: 04:38:01
(UTC+00:00)

Tiros 1 despin weight - Pass Details

Date: 20 February 2020
Orbit: 593 x 642 km, 48.2° (Epoch: 04 April)

Event Time Altitude Azimuth Distance (km) Brightness Sun altitude
Rises 15:09:32 0° 302° (WNW) 2,891 ? 77.1°
Reaches altitude 10° 15:11:54 10° 296° (WNW) 1,998 ? 77.2°
Maximum altitude 15:16:20 46° 222° (SW) 859 ? 77.4°
Drops below altitude 10° 15:20:51 10° 149° (SSE) 2,039 ? 77.5°
Sets 15:23:18 0° 142° (SE) 2,957 ? 77.6°
